Location: Allentsteig
(48.6833°N, 15.3167°E)
Time: 01:15:42
(UTC+00:00)

Cosmos 2298 Rocket - Pass Details

Date: 20 January 2021
Orbit: 775 x 784 km, 74.0° (Epoch: 03 March)

Event Time Altitude Azimuth Distance (km) Brightness Sun altitude
Exits shadow 05:27:00 - 336° (NNW) 2,941 6.6 -12.2°
Reaches altitude 10° 05:28:31 10° 336° (NNW) 2,353 6.1 -11.9°
Maximum altitude 05:33:52 86° 250° (WSW) 794 4.0 -11.1°
Drops below altitude 10° 05:39:12 10° 161° (SSE) 2,337 7.1 -10.3°
Sets 05:41:35 0° 161° (SSE) 3,260 7.9 -9.9°
